Weather History for EBAW - January, 2013

Change the Weather History Date:

Monday, January 14, 2013

  Actual Average Record
Temperature  
Mean Temperature 26 °F -  
Max Temperature 30 °F 43 °F 55 °F (2011)
Min Temperature 21 °F 33 °F 21 °F (2013)
Degree Days  
Heating Degree Days 40    
Moisture  
Dew Point 23 °F    
Average Humidity 83    
Maximum Humidity 93    
Minimum Humidity 63    
Precipitation  
Precipitation 0.16 in - - ()
Sea Level Pressure  
Sea Level Pressure 29.93 in    
Wind  
Wind Speed 6 mph ()    
Max Wind Speed 17 mph    
Max Gust Speed -    
Visibility 4.0 miles    
Events Snow    
Averages and records for this station are not official NWS values.
T = Trace of Precipitation, MM = Missing Value Source: Averaged Metar Reports

Daily Weather History Graph

Daily Weather History Graph

Search for Another Location

Airport or City:

Trip Planner

Search our weather history database for the weather conditions in past years. The results will help you decide how hot, cold, wet, or windy it might be!

Date:

Astronomy

Jan. 14, 2013 Rise Set
Actual Time 8:40 AM CET 5:02 PM CET
Civil Twilight 8:02 AM CET 5:40 PM CET
Nautical Twilight 7:20 AM CET 6:22 PM CET
Astronomical Twilight 6:40 AM CET 7:02 PM CET
Moon 9:39 AM CET (1/14) 8:59 PM CET (1/14)
Length of Visible Light 9h 38m
Length of Day
8h 22m
Waxing Crescent, 9% of the Moon is Illuminated
Jan 14
Waxing Crescent
Jan 19
First Quarter
Jan 27
Full
Feb 3
Last Quarter
Feb 10
New

Hourly Weather History & Observations

Time (CET) Temp. Windchill Dew Point Humidity Pressure Visibility Wind Dir Wind Speed Gust Speed Precip Events Conditions
12:20 AM 28.4 °F 22.2 °F 24.8 °F 86% 30.06 in 5.6 mi NNE 5.8 mph - N/A   Partly Cloudy
12:50 AM 26.6 °F 19.1 °F 23.0 °F 86% 30.04 in 5.0 mi North 6.9 mph - N/A   Unknown
1:00 AM 27 °F - 24 °F 82% 30.06 in - North 6.7 mph - -  
1:20 AM 26.6 °F 20.0 °F 23.0 °F 86% 30.04 in 5.6 mi North 5.8 mph - N/A   Unknown
1:50 AM 26.6 °F 21.2 °F 23.0 °F 86% 30.04 in 5.6 mi NNE 4.6 mph - N/A   Unknown
2:20 AM 26.6 °F 22.6 °F 23.0 °F 86% 30.04 in 5.0 mi North 3.5 mph - N/A   Unknown
2:50 AM 26.6 °F 22.6 °F 23.0 °F 86% 30.04 in 5.0 mi NNE 3.5 mph - N/A   Unknown
3:20 AM 24.8 °F 19.1 °F 23.0 °F 93% 30.04 in 5.0 mi North 4.6 mph - N/A   Unknown
3:50 AM 24.8 °F 20.5 °F 23.0 °F 93% 30.04 in 4.3 mi North 3.5 mph - N/A   Unknown
4:00 AM 26 °F - 23 °F 82% 30.05 in - North 4.5 mph - -  
4:20 AM 26.6 °F 21.2 °F 23.0 °F 86% 30.04 in 4.3 mi NNW 4.6 mph - N/A   Unknown
4:50 AM 24.8 °F - 23.0 °F 93% 30.04 in 3.7 mi Variable 1.2 mph - N/A   Unknown
5:20 AM 23.0 °F - 21.2 °F 93% 30.01 in - Calm Calm - N/A   Partly Cloudy
5:50 AM 23.0 °F - 21.2 °F 93% 30.01 in 3.1 mi North 1.2 mph - N/A   Overcast
6:20 AM 23.0 °F - 21.2 °F 93% 30.01 in 3.1 mi Calm Calm - N/A   Partly Cloudy
6:50 AM 23.0 °F - 21.2 °F 93% 30.01 in - Variable 1.2 mph - N/A   Partly Cloudy
7:00 AM 23 °F - 20 °F 85% 30.02 in 3 mi NW 2.2 mph - -   Mist
7:20 AM 21.2 °F - 19.4 °F 93% 30.01 in 2.5 mi SSE 1.2 mph - N/A   Partly Cloudy
7:50 AM 26.6 °F - 23.0 °F 86% 30.01 in - SSW 2.3 mph - N/A   Mostly Cloudy
8:20 AM 26.6 °F 20.0 °F 24.8 °F 93% 30.01 in - WSW 5.8 mph - N/A   Scattered Clouds
8:50 AM 26.6 °F 21.2 °F 24.8 °F 93% 30.01 in 3.7 mi SW 4.6 mph - N/A   Mostly Cloudy
9:20 AM 26.6 °F 21.2 °F 23.0 °F 86% 30.01 in 3.7 mi South 4.6 mph - N/A   Partly Cloudy
9:50 AM 26.6 °F 20.0 °F 23.0 °F 86% 30.01 in 3.7 mi SSW 5.8 mph - N/A   Partly Cloudy
10:20 AM 28.4 °F 22.2 °F 23.0 °F 80% 30.01 in 3.1 mi SSW 5.8 mph - N/A   Scattered Clouds
10:50 AM 28.4 °F 21.2 °F 24.8 °F 86% 29.98 in 3.7 mi South 6.9 mph - N/A   Scattered Clouds
11:20 AM 28.4 °F 21.2 °F 23.0 °F 80% 30.01 in 3.7 mi SW 6.9 mph - N/A   Scattered Clouds
11:50 AM 28.4 °F 21.2 °F 23.0 °F 80% 29.98 in 4.3 mi SW 6.9 mph - N/A   Scattered Clouds
12:20 PM 28.4 °F 20.4 °F 23.0 °F 80% 29.98 in 3.7 mi SW 8.1 mph - N/A   Mostly Cloudy
12:50 PM 28.4 °F 21.2 °F 24.8 °F 86% 29.95 in 3.7 mi SSW 6.9 mph - N/A   Mostly Cloudy
1:00 PM 28 °F - 24 °F 78% 29.97 in 4 mi SSW 6.7 mph - -   Mostly Cloudy
1:20 PM 28.4 °F 19.7 °F 23.0 °F 80% 29.95 in 4.3 mi SSW 9.2 mph - N/A   Mostly Cloudy
1:50 PM 28.4 °F 20.4 °F 23.0 °F 80% 29.92 in 4.3 mi SW 8.1 mph - N/A   Mostly Cloudy
2:20 PM 28.4 °F 21.2 °F 23.0 °F 80% 29.92 in 4.3 mi SSW 6.9 mph - N/A   Scattered Clouds
2:50 PM 28.4 °F 21.2 °F 23.0 °F 80% 29.92 in 4.3 mi South 6.9 mph - N/A   Scattered Clouds
3:20 PM 28.4 °F 21.2 °F 23.0 °F 80% 29.92 in 4.3 mi South 6.9 mph - N/A Snow Light Snow
3:50 PM 28.4 °F 21.2 °F 23.0 °F 80% 29.92 in 4.3 mi South 6.9 mph - N/A   Mostly Cloudy
4:00 PM 29 °F - 23 °F 70% 29.92 in 4 mi South 6.7 mph - - Snow Light Snow
4:20 PM 28.4 °F 22.2 °F 23.0 °F 80% 29.89 in 4.3 mi South 5.8 mph - N/A   Mostly Cloudy
4:50 PM 28.4 °F 21.2 °F 23.0 °F 80% 29.89 in 4.3 mi SSE 6.9 mph - N/A   Partly Cloudy
5:20 PM 28.4 °F 20.4 °F 23.0 °F 80% 29.89 in 4.3 mi SSE 8.1 mph - N/A   Partly Cloudy
5:50 PM 28.4 °F 20.4 °F 23.0 °F 80% 29.86 in 3.7 mi SSE 8.1 mph - N/A   Unknown
6:20 PM 28.4 °F 19.1 °F 23.0 °F 80% 29.83 in 3.7 mi SSE 10.4 mph - N/A   Unknown
6:50 PM 28.4 °F 19.1 °F 23.0 °F 80% 29.83 in 3.7 mi SE 10.4 mph - N/A   Scattered Clouds
7:00 PM 28 °F - 23 °F 76% 29.84 in 4 mi SE 8.9 mph - -   Partly Cloudy
7:20 PM 28.4 °F 19.7 °F 23.0 °F 80% 29.80 in 4.3 mi SSE 9.2 mph - N/A   Scattered Clouds
7:50 PM 28.4 °F 19.7 °F 23.0 °F 80% 29.80 in 5.0 mi SE 9.2 mph - N/A   Scattered Clouds
8:20 PM 28.4 °F 19.1 °F 24.8 °F 86% 29.77 in 5.0 mi SE 10.4 mph - N/A   Scattered Clouds
8:50 PM 30.2 °F 21.3 °F 23.0 °F 75% 29.77 in 4.3 mi SE 10.4 mph - N/A Snow Light Snow
9:20 PM 30.2 °F 21.3 °F 23.0 °F 75% 29.74 in 2.8 mi SE 10.4 mph - N/A Snow Light Snow
9:50 PM 30.2 °F 20.2 °F 23.0 °F 75% 29.71 in 6.2 mi SE 12.7 mph - N/A   Mostly Cloudy
10:00 PM 30 °F - 22 °F 63% 29.73 in 7 mi SE 13.4 mph - - Snow Light Snow
10:20 PM 30.2 °F 19.8 °F 21.2 °F 69% 29.71 in 1.4 mi SSE 13.8 mph - N/A Snow Light Snow
10:50 PM 28.4 °F 17.0 °F 24.8 °F 86% 29.68 in 0.6 mi SSE 15.0 mph - N/A Snow Snow
11:20 PM 28.4 °F 16.2 °F 24.8 °F 86% 29.68 in 0.2 mi SE 17.3 mph - N/A Snow Snow
11:50 PM 28.4 °F 16.2 °F 24.8 °F 86% 29.65 in - SE 17.3 mph - N/A Snow Heavy Snow